Location: Newark
(63.1158°N, 8.1461°E)
Time: 18:42:36
(UTC+00:00)

Envisat - Pass Details

Date: 12 December 2019
Orbit: 764 x 766 km, 98.1° (Epoch: 29 January)

Event Time Altitude Azimuth Distance (km) Brightness Sun altitude
Rises 05:00:18 0° 19° (NNE) 3,251 6.4 -22.7°
Reaches altitude 10° 05:03:13 10° 36° (NE) 2,320 5.8 -22.4°
Maximum altitude 05:06:59 20° 84° (E) 1,710 5.6 -22.0°
Drops below altitude 10° 05:10:44 10° 132° (SE) 2,308 6.3 -21.6°
Sets 05:13:37 0° 149° (SSE) 3,229 6.8 -21.2°
